South Bend, IN

5:12 AM EDT on May 23, 2017 (GMT -0400)
South Bend Regional

Weather History for KSBN - April, 2013

Change the Weather History Date:

Thursday, April 11, 2013

  Actual Average Record
Temperature  
Mean Temperature 43 °F 47 °F  
Max Temperature 44 °F 58 °F 90 °F (1930)
Min Temperature 41 °F 37 °F 16 °F (1909)
Degree Days  
Heating Degree Days 22 18  
Month to date heating degree days 232 217  
Since 1 July heating degree days 5643 5761  
Cooling Degree Days 0 0  
Month to date cooling degree days 0 0  
Year to date cooling degree days 0 1  
Moisture  
Dew Point 41 °F    
Average Humidity 93    
Maximum Humidity 96    
Minimum Humidity 89    
Precipitation  
Precipitation 1.35 in 0.11 in 1.75 in (1922)
Month to date precipitation 1.66 1.13  
Year to date precipitation 10.41 7.79  
Snow  
Snow 0.00 in 0.10 in 3.60 in (2007)
Month to date snowfall T 0.9  
Since 1 July snowfall 59.9 66.1  
Snow Depth 0.00 in    
Sea Level Pressure  
Sea Level Pressure 29.73 in    
Wind  
Wind Speed 13 mph (East)    
Max Wind Speed 25 mph    
Max Gust Speed 32 mph    
Visibility 5 miles    
Events Rain , Thunderstorm    
T = Trace of Precipitation, MM = Missing Value Source: NWS Daily Summary

Daily Weather History Graph

Daily Weather History Graph

Search for Another Location

Airport or City:

Trip Planner

Search our weather history database for the weather conditions in past years. The results will help you decide how hot, cold, wet, or windy it might be!

Date:

Astronomy

Apr. 11, 2013 Rise Set
Actual Time 7:11 AM EDT 8:21 PM EDT
Civil Twilight 6:42 AM EDT 8:50 PM EDT
Nautical Twilight 6:08 AM EDT 9:24 PM EDT
Astronomical Twilight 5:32 AM EDT 10:00 PM EDT
Moon 7:41 AM EDT (4/11) 9:57 PM EDT (4/11)
Length of Visible Light 14h 07m
Length of Day
13h 10m
New Moon, 2% of the Moon is Illuminated
Apr 11
New Moon
Apr 18
First Quarter
Apr 25
Full
May 2
Last Quarter
May 9
New

Hourly Weather History & Observations

Time (EDT) Temp. Windchill Dew Point Humidity Pressure Visibility Wind Dir Wind Speed Gust Speed Precip Events Conditions
12:54 AM 43.0 °F 38.8 °F 41.0 °F 93% 29.88 in 5.0 mi NNE 6.9 mph - 0.09 in Rain , Thunderstorm Rain
1:18 AM 42.8 °F 36.6 °F 41.0 °F 93% 29.84 in 4.0 mi ENE 11.5 mph - 0.09 in Rain , Thunderstorm Rain
1:54 AM 43.0 °F 37.2 °F 41.0 °F 93% 29.84 in 3.0 mi NNE 10.4 mph 17.3 mph 0.24 in Rain , Thunderstorm Heavy Thunderstorms and Rain
2:00 AM 42.8 °F 37.5 °F 41.0 °F 93% 29.83 in 2.5 mi NE 9.2 mph - 0.04 in Rain Heavy Rain
2:03 AM 42.8 °F 37.0 °F 41.0 °F 93% 29.83 in 3.0 mi NE 10.4 mph - 0.06 in Rain Heavy Rain
2:07 AM 42.8 °F 37.0 °F 39.2 °F 87% 29.84 in 2.5 mi NE 10.4 mph - 0.09 in Rain , Thunderstorm Heavy Rain
2:32 AM 42.8 °F 37.0 °F 41.0 °F 93% 29.86 in 2.5 mi East 10.4 mph - 0.32 in Rain , Thunderstorm Heavy Rain
2:40 AM 42.8 °F 36.6 °F 41.0 °F 93% 29.85 in 2.5 mi East 11.5 mph - 0.38 in Rain Heavy Rain
2:47 AM 42.8 °F 37.5 °F 41.0 °F 93% 29.83 in 4.0 mi East 9.2 mph - 0.42 in Rain Rain
2:51 AM 42.8 °F 37.0 °F 41.0 °F 93% 29.84 in 5.0 mi East 10.4 mph - 0.43 in Rain Rain
2:54 AM 43.0 °F 37.2 °F 41.0 °F 93% 29.85 in 5.0 mi East 10.4 mph - 0.43 in Rain Rain
3:09 AM 42.8 °F 38.6 °F 41.0 °F 93% 29.83 in 6.0 mi ENE 6.9 mph - 0.04 in Rain Rain
3:24 AM 42.8 °F 37.0 °F 39.2 °F 87% 29.82 in 9.0 mi ENE 10.4 mph - 0.05 in Rain Light Rain
3:54 AM 42.1 °F 36.6 °F 39.9 °F 92% 29.82 in 10.0 mi ENE 9.2 mph - 0.06 in Rain Light Rain
4:19 AM 42.8 °F 38.0 °F 39.2 °F 87% 29.84 in 9.0 mi ENE 8.1 mph - 0.02 in Rain Light Rain
4:54 AM 42.1 °F 33.9 °F 39.9 °F 92% 29.77 in 9.0 mi East 17.3 mph 26.5 mph 0.05 in Rain Light Rain
5:04 AM 42.8 °F 35.4 °F 39.2 °F 87% 29.77 in 10.0 mi East 15.0 mph 23.0 mph 0.00 in Rain Light Rain
5:50 AM 42.8 °F 35.1 °F 39.2 °F 87% 29.76 in 10.0 mi East 16.1 mph 21.9 mph 0.00 in   Overcast
5:54 AM 43.0 °F 35.1 °F 39.9 °F 89% 29.77 in 10.0 mi ESE 17.3 mph - 0.00 in   Overcast
6:54 AM 43.0 °F 37.2 °F 39.9 °F 89% 29.76 in 10.0 mi East 10.4 mph 20.7 mph 0.00 in   Overcast
7:54 AM 43.0 °F 35.4 °F 39.9 °F 89% 29.78 in 10.0 mi East 16.1 mph 23.0 mph N/A   Overcast
8:54 AM 43.0 °F 35.7 °F 39.9 °F 89% 29.75 in 10.0 mi East 15.0 mph 26.5 mph N/A   Overcast
9:54 AM 44.1 °F 37.4 °F 41.0 °F 89% 29.73 in 7.0 mi East 13.8 mph - 0.00 in Rain Light Rain
10:54 AM 44.1 °F 37.1 °F 41.0 °F 89% 29.73 in 2.5 mi East 15.0 mph 24.2 mph 0.03 in Rain Rain
11:03 AM 44.6 °F 37.8 °F 41.0 °F 87% 29.71 in 7.0 mi East 15.0 mph 26.5 mph 0.00 in Rain Light Rain
11:10 AM 44.6 °F 37.4 °F 41.0 °F 87% 29.71 in 2.5 mi East 16.1 mph - 0.00 in Rain Light Rain
11:19 AM 44.6 °F 36.4 °F 41.0 °F 87% 29.71 in 9.0 mi East 20.7 mph 31.1 mph 0.00 in Rain Light Rain
11:54 AM 44.1 °F 37.4 °F 41.0 °F 89% 29.71 in 5.0 mi East 13.8 mph 25.3 mph 0.00 in   Overcast
12:54 PM 44.6 °F 35.7 °F 41.0 °F 87% 29.71 in 3.0 mi ESE 24.2 mph 32.2 mph N/A Rain Light Rain
1:10 PM 44.6 °F 36.6 °F 41.0 °F 87% 29.70 in 1.5 mi ESE 19.6 mph - 0.00 in Rain Light Rain
1:37 PM 44.6 °F 37.8 °F 42.8 °F 93% 29.68 in 1.2 mi East 15.0 mph 23.0 mph 0.01 in Rain Light Rain
1:54 PM 44.1 °F 36.5 °F 42.1 °F 93% 29.68 in 2.0 mi ESE 17.3 mph 25.3 mph 0.02 in Rain Light Rain
2:28 PM 44.6 °F 37.8 °F 42.8 °F 93% 29.66 in 4.0 mi East 15.0 mph 19.6 mph 0.00 in   Overcast
2:54 PM 44.1 °F 37.1 °F 41.0 °F 89% 29.67 in 3.0 mi ESE 15.0 mph 24.2 mph 0.00 in Rain Light Rain
2:58 PM 44.6 °F 37.8 °F 42.8 °F 93% 29.68 in 2.0 mi SE 15.0 mph 23.0 mph 0.01 in Rain Rain
3:24 PM 44.6 °F 38.8 °F 42.8 °F 93% 29.67 in 6.0 mi ESE 11.5 mph 21.9 mph 0.04 in Rain Light Rain
3:52 PM 44.6 °F 37.2 °F 42.8 °F 93% 29.65 in 2.0 mi East 17.3 mph - 0.04 in Rain Light Rain
3:54 PM 44.1 °F 37.1 °F 42.1 °F 93% 29.66 in 2.0 mi East 15.0 mph 23.0 mph 0.04 in Rain Light Rain
4:54 PM 44.1 °F 36.2 °F 42.1 °F 93% 29.65 in 4.0 mi ESE 18.4 mph - 0.01 in Rain Light Rain
5:54 PM 44.1 °F 37.1 °F 42.1 °F 93% 29.65 in 3.0 mi ESE 15.0 mph 21.9 mph 0.03 in Rain Light Rain
6:08 PM 44.6 °F 38.4 °F 42.8 °F 93% 29.64 in 2.5 mi ESE 12.7 mph - 0.03 in Rain Rain
6:29 PM 44.6 °F 39.2 °F 42.8 °F 93% 29.63 in 3.0 mi ESE 10.4 mph - 0.09 in Rain Rain
6:30 PM 44.6 °F 39.2 °F 42.8 °F 93% 29.63 in 2.5 mi ESE 10.4 mph - 0.09 in Rain Rain
6:54 PM 43.0 °F 38.2 °F 41.0 °F 93% 29.64 in 4.0 mi East 8.1 mph - 0.13 in Rain Rain
7:21 PM 42.8 °F 37.5 °F 41.0 °F 93% 29.63 in 1.8 mi East 9.2 mph - 0.04 in Rain Rain
7:54 PM 43.0 °F 36.4 °F 41.0 °F 93% 29.64 in 1.5 mi East 12.7 mph - 0.13 in Rain Rain
8:06 PM 42.8 °F 37.5 °F 41.0 °F 93% 29.62 in 2.0 mi East 9.2 mph - N/A Rain Rain
8:54 PM 42.1 °F 37.1 °F 39.9 °F 92% 29.63 in 2.0 mi East 8.1 mph - 0.06 in Rain Light Rain
9:18 PM 42.8 °F 38.0 °F 39.2 °F 87% 29.60 in 2.0 mi East 8.1 mph - 0.01 in Rain Light Rain
9:54 PM 42.1 °F 35.7 °F 39.9 °F 92% 29.61 in 2.0 mi East 11.5 mph - 0.02 in Rain Light Rain
10:39 PM 41.0 °F 35.8 °F 39.2 °F 93% 29.60 in 6.0 mi ESE 8.1 mph - 0.01 in Rain Light Rain
10:54 PM 41.0 °F 35.2 °F 39.0 °F 93% 29.61 in 5.0 mi East 9.2 mph - 0.02 in Rain Light Rain
11:54 PM 41.0 °F 38.0 °F 39.0 °F 93% 29.62 in 7.0 mi ESE 4.6 mph - 0.03 in Rain Light Rain